Regional Weather Roundup
Issued by NWS

Home | Current Version | Previous Version | Text Only | Print | Product List | Glossary Off
Versions: 1 2 3 4 5 6 7 8 9 10 11 12 13 14 15 16 17 18 19 20 21 22 23 24 25 26 27 28 29 30 31 32 33 34 35 36 37 38 39 40 41 42 43 44 45 46 47 48 49 50

000
ASUS44 KMEG 231910
RWRTN
TENNESSEE HOURLY STATE WEATHER ROUNDUP
NATIONAL WEATHER SERVICE MEMPHIS TN
200 PM CDT WED MAY 23 2018

TNZ002-004-019-021-049-052-054-088>092-232000-
WEST TENNESSEE

CITY           SKY/WX    TMP DP  RH WIND       PRES   REMARKS
MEMPHIS INTL   PTSUNNY   88  70  55 E9        30.06F HX  93
NWS MEMPHIS      N/A     86 N/A N/A MISG        N/A
JACKSON        FAIR      88  70  55 SE3       30.08F HX  93
DYERSBURG      FAIR      88  70  55 SE6       30.08F HX  92
COVINGTON      MOSUNNY   86  72  62 E5G12     30.07F HX  92
BOLIVAR        MOSUNNY   86  70  58 CALM      30.08F HX  90
PARIS          MOSUNNY   84  66  54 NE7       30.10F
HUNTINGDON     MOSUNNY   86  66  51 N6G13     30.09F
LEXINGTON      MOSUNNY   86  68  54 VRB5      30.08F
SELMER         MOSUNNY   86  68  54 VRB6      30.08F
SAVANNAH       SUNNY     88  68  51 NE6       30.07F HX  91
$$

TNZ008-025-027-028-033-062-065-066-232000-
NORTH MIDDLE TENNESSEE

CITY           SKY/WX    TMP DP  RH WIND       PRES   REMARKS
NASHVILLE      PTSUNNY   88  65  46 N7        30.09F HX  90
DICKSON        MOCLDY    82  66  57 VRB6      30.10F
PORTLAND       MOSUNNY   84  64  51 N7        30.10F
CLARKSVILLE    FAIR      86  62  44 NE6       30.09F
SMYRNA         FAIR      87  68  52 N10       30.09F HX  90
MURFREESBORO   PTCLDY    88  63  42 N7G13     30.07F
COOKEVILLE     MOSUNNY   84  66  54 VRB6      30.09F
LIVINGSTON     CLEAR     81  64  57 NE9       30.11F
GALLATIN       MOSUNNY   86  63  45 VRB6G13   30.12S
CROSSVILLE     PTSUNNY   80  63  55 N7        30.14F
$$

TNZ061-075-076-078-094-096-097-232000-
SOUTH MIDDLE TENNESSEE

CITY           SKY/WX    TMP DP  RH WIND       PRES   REMARKS
LEWISBURG      PTCLDY    84  66  54 NE5G12    30.07F
FAYETTEVILLE   SUNNY     84  68  58 VRB5      30.09F
TULLAHOMA      PTSUNNY   84  66  54 VRB3      30.09F
WINCHESTER     SUNNY     86  63  45 N7G14     30.08F
MCMINNVILLE    MOSUNNY   84  66  54 VRB6      30.09F
COLUMBIA       MOSUNNY   88  64  45 NW7       30.07F
SHELBYVILLE    PTSUNNY   84  64  51 N6        30.08F HAZE
$$

TNZ017-018-042-046-047-232000-
NORTHEAST TENNESSEE

CITY           SKY/WX    TMP DP  RH WIND       PRES   REMARKS
TRI CITIES     FAIR      83  66  56 VRB3      30.11F
ELIZABETHTON   FAIR      81  66  61 NW6       30.11F
GREENEVILLE    PTCLDY    81  64  57 VRB5      30.12F
$$

TNZ012-013-036-069-073-074-232000-
CENTRAL EAST TENNESSEE

CITY           SKY/WX    TMP DP  RH WIND       PRES   REMARKS
KNOXVILLE      FAIR      84  66  54 CALM      30.08F
OAK RIDGE      CLOUDY    84  67  56 VRB5      30.09F
DOWNTOWN KNOXV MOSUNNY   86  64  48 CALM      30.08F
GATLINBURG     SUNNY     84  64  51 VRB5      30.09F
MORRISTOWN     MOSUNNY   81  64  57 CALM      30.10F
JACKSBORO      SUNNY     84  64  51 CALM      30.12F
$$

TNZ083-085-099-232000-
SOUTHEAST TENNESSEE

CITY           SKY/WX    TMP DP  RH WIND       PRES   REMARKS
CHATTANOOGA    PTSUNNY   86  64  47 NE10      30.07F
DAYTON         PTCLDY    84  72  65 VRB5      30.07F
$$

SKY/WX REPORTED AS FAIR MEANS FEW OR NO CLOUDS BELOW
12 THOUSAND FEET.




USA.gov is the U.S. government's official web portal to all federal, state and local government web resources and services.